Weather in Nizhneyansk

Russia / Sakha (Yakutia) Republic     71°26′22″N   136°07′58″E
temp.,
°C
wind,
m/s
gust,
m/s
humid.,
%
clouds,
%
prec.,
mm/h
press.,
hPa
HPBL,
m
9 may, sun
sun901:00−5ne3498100 0.2 101948
04:00−8ne229885 0.3 101926
07:00−5ese229797 0.1 101865
10:00−2se3493100 0.3 1018265
13:000se4593100 0.1 1018565
16:000ese5791100 0.1 1018516
19:00−1ese5888100 0.0 1018445
22:00−2e6993100 0.0 1018229
10 may, mon
mon1001:00−5ene61093100 0.0 1019192
04:00−7ene61295100 0.0 1019215
07:00−5ene61194100 0.0 1020433
10:00−2ene6886100 0.1 1021897
13:00−1ne788192 0.1 10211011
16:00−2ne688098 0.1 1022639
19:00−3ene4784100 0.1 1022509
22:00−4ne359298 0.1 1023111
11 may, tue
tue1101:00−4nne3694100 0.0 1023118
04:00−4ne589595 0.1 1024231
07:00−5ne4895100 0.0 1024241
10:00−4ne568699 0.1 1025632
13:00−3ne5585100 0.1 1025563
16:00−2ne568596 0.1 1025582
19:00−3ne5690100 0.1 1025464
22:00−4ene4792100 0.1 1025223
12 may, wed
wed1201:00−6ne359298 0.0 102465
04:00−13ene339866 0.0 102425
07:00−11ene3510098 0.0 102381
10:00−8e359694 0.1 1022188
13:00−6e459180 0.0 1021286
16:00−4e358895 0.0 1019507
19:00−3e3487100 0.1 1018578
22:00−4e2390100 0.1 101755
13 may, thu
thu1301:00−8e229587 0.0 101623
04:00−12e229978 0.0 101513
07:00−10ese229778 0.0 101438
10:00−6se239210 0.0 1013143
13:00−5se238961 0.0 1012272
16:00−4sse338917 0.0 1012280
19:00−6se229317 0.0 101222
22:00−10sse339526 0.0 101119